Weather in Baton Rouge

United States     30°26′45″N   91°05′23″W
temp.,
°C
wind,
m/s
gust,
m/s
humid.,
%
clouds,
%
prec.,
mm/h
press.,
hPa
HPBL,
m
16 may, sun
sun1601:00+18se2887100 0.0 1020237
04:00+18se289095 0.0 1020223
07:00+18se2887100 0.0 1021245
10:00+24ese456423 0.0 1022947
13:00+27se454749 0.0 10201520
16:00+27se454829 0.0 10181479
19:00+23ese41070100 0.0 1017607
22:00+20se288381 0.0 1018248
17 may, mon
mon1701:00+20se2791100 0.0 1018242
04:00+20se3996100 0.2 1016369
07:00+20se289591 0.6 1017200
10:00+24sse3683100 1.3 1018770
13:00+27se566095 1.3 10171428
16:00+27sse5661100 0.1 10151434
19:00+23se388491 1.3 1016522
22:00+21se3109120 0.0 1017496
18 may, tue
tue1801:00+19se311926 0.0 1016406
04:00+20ese2109719 0.0 1015360
07:00+21ese3109736 0.0 1016466
10:00+26sse378214 1.9 1017740
13:00+27se577797 5.8 10161010
16:00+24ese4989100 5.1 1015695
19:00+23ese4109195 7.8 1015663
22:00+22ese4129533 0.4 1016689
19 may, wed
wed1901:00+22se4129649 0.4 1016742
04:00+20se3119714 0.0 1015543
07:00+21ese412945 0.0 1017634
10:00+26se696917 0.0 10171267
13:00+30se585171 0.1 10172166
16:00+28ese696545 0.4 10161371
19:00+24ese5108216 1.7 1017944
22:00+22ese5118734 0.0 1018786
20 may, thu
thu2001:00+20ese31095100 0.0 1017482
04:00+20ese3139311 0.0 1016703
07:00+20e3119349 0.0 1018600
10:00+26ese597154 0.1 10191310
13:00+28ese796320 0.6 10191547
16:00+26ese6118043 1.9 10181105
19:00+24ese6118056 2.4 10191002
22:00+22ese411844 0.0 1021789